• In Belgium
  • List of Countries
  • For 7 days
  • Water Temperature
  • Satellite Maps
  • Weather Map
  • Weather Widgets
  • user-avatar
    Login

    Hourly Weather Pashennyy

    Today, 21 August, Tuesday

    Time Temperature Precipitation Wind Pressure Humidity
    00:00 +16°C° 0 mm 1 mps 711 mmHg 78%
    01:00 +15°C° 0 mm 1 mps 711 mmHg 79%
    02:00 +15°C° 0 mm 1 mps 711 mmHg 81%
    03:00 +15°C° 0 mm 1 mps 711 mmHg 82%
    04:00 +14°C° 0 mm 1 mps 711 mmHg 84%
    05:00 +15°C° 0 mm 1 mps 711 mmHg 80%
    06:00 +18°C° 0 mm 1 mps 711 mmHg 77%
    07:00 +17°C° 0 mm 0 mps 711 mmHg 72%
    08:00 +21°C° 0 mm 1 mps 712 mmHg 65%
    09:00 +24°C° 0 mm 1 mps 712 mmHg 58%
    10:00 +26°C° 0 mm 1 mps 712 mmHg 51%
    11:00 +27°C° 0 mm 1 mps 711 mmHg 47%
    12:00 +28°C° 0 mm 1 mps 711 mmHg 44%
    13:00 +28°C° 0 mm 1 mps 711 mmHg 41%
    14:00 +28°C° 0 mm 1 mps 711 mmHg 41%
    15:00 +28°C° 0 mm 1 mps 711 mmHg 42%
    16:00 +28°C° 0 mm 1 mps 711 mmHg 43%
    17:00 +26°C° 0 mm 1 mps 710 mmHg 50%
    18:00 +24°C° 0 mm 1 mps 710 mmHg 58%
    19:00 +22°C° 0 mm 1 mps 710 mmHg 65%
    20:00 +19°C° 0 mm 0 mps 710 mmHg 68%
    21:00 +17°C° 0 mm 0 mps 710 mmHg 71%
    22:00 +16°C° 0 mm 0 mps 710 mmHg 73%
    23:00 +16°C° 0 mm 0 mps 710 mmHg 75%

    Tomorrow, 22 August, Wednesday

    Time Temperature Precipitation Wind Pressure Humidity
    00:00 +15°C° 0 mm 0 mps 710 mmHg 77%
    01:00 +15°C° 0 mm 0 mps 710 mmHg 78%
    02:00 +14°C° 0 mm 0 mps 709 mmHg 80%
    03:00 +14°C° 0 mm 0 mps 709 mmHg 81%
    04:00 +14°C° 0 mm 0 mps 709 mmHg 82%
    05:00 +15°C° 0 mm 0 mps 710 mmHg 79%
    06:00 +16°C° 0 mm 0 mps 710 mmHg 76%
    07:00 +17°C° 0 mm 0 mps 710 mmHg 73%
    08:00 +21°C° 0 mm 1 mps 710 mmHg 66%
    09:00 +24°C° 0 mm 1 mps 710 mmHg 58%
    10:00 +26°C° 0 mm 1 mps 711 mmHg 51%
    11:00 +27°C° 0 mm 1 mps 710 mmHg 48%
    12:00 +28°C° 0 mm 1 mps 710 mmHg 44%
    13:00 +28°C° 0 mm 2 mps 710 mmHg 40%
    14:00 +28°C° 0 mm 2 mps 710 mmHg 41%
    15:00 +28°C° 0 mm 1 mps 710 mmHg 42%
    16:00 +28°C° 0 mm 1 mps 709 mmHg 42%
    17:00 +26°C° 0 mm 1 mps 709 mmHg 51%
    18:00 +24°C° 0 mm 1 mps 709 mmHg 59%
    19:00 +20°C° 0 mm 0 mps 709 mmHg 68%
    20:00 +19°C° 0 mm 0 mps 709 mmHg 70%
    21:00 +18°C° 0 mm 0 mps 709 mmHg 71%
    22:00 +17°C° 0 mm 0 mps 709 mmHg 73%
    23:00 +17°C° 0.1 mm 0 mps 709 mmHg 75%

    Day after tomorrow, 23 August, Thursday

    Time Temperature Precipitation Wind Pressure Humidity
    00:00 +18°C° 0.1 mm 1 mps 709 mmHg 77%
    01:00 +18°C° 0.1 mm 1 mps 709 mmHg 79%
    02:00 +18°C° 0.2 mm 1 mps 709 mmHg 83%
    03:00 +18°C° 0.2 mm 1 mps 709 mmHg 86%
    04:00 +18°C° 0.2 mm 1 mps 709 mmHg 89%
    05:00 +18°C° 0 mm 1 mps 710 mmHg 90%
    06:00 +17°C° 0 mm 2 mps 710 mmHg 90%
    07:00 +17°C° 0 mm 2 mps 710 mmHg 90%
    08:00 +18°C° 0 mm 2 mps 710 mmHg 88%
    09:00 +18°C° 0 mm 2 mps 711 mmHg 85%
    10:00 +19°C° 0 mm 3 mps 711 mmHg 83%
    11:00 +19°C° 0.1 mm 3 mps 711 mmHg 79%
    12:00 +19°C° 0.1 mm 2 mps 711 mmHg 76%
    13:00 +20°C° 0.1 mm 2 mps 711 mmHg 73%
    14:00 +21°C° 0 mm 2 mps 711 mmHg 69%
    15:00 +21°C° 0 mm 2 mps 711 mmHg 65%
    16:00 +23°C° 0 mm 2 mps 711 mmHg 60%
    17:00 +21°C° 0 mm 2 mps 711 mmHg 66%
    18:00 +21°C° 0 mm 1 mps 711 mmHg 72%
    19:00 +19°C° 0 mm 1 mps 711 mmHg 79%
    20:00 +18°C° 0 mm 1 mps 711 mmHg 83%
    21:00 +16°C° 0 mm 1 mps 711 mmHg 88%
    22:00 +15°C° 0 mm 1 mps 711 mmHg 93%
    23:00 +14°C° 0 mm 1 mps 711 mmHg 94%

    24 August, Friday

    Time Temperature Precipitation Wind Pressure Humidity
    00:00 +14°C° 0 mm 1 mps 712 mmHg 95%
    01:00 +13°C° 0 mm 1 mps 712 mmHg 96%
    02:00 +13°C° 0 mm 1 mps 712 mmHg 97%
    03:00 +12°C° 0 mm 1 mps 712 mmHg 97%
    04:00 +12°C° 0 mm 1 mps 712 mmHg 97%
    05:00 +13°C° 0 mm 1 mps 712 mmHg 94%
    06:00 +14°C° 0 mm 1 mps 712 mmHg 91%
    07:00 +14°C° 0 mm 1 mps 713 mmHg 87%
    08:00 +16°C° 0 mm 1 mps 713 mmHg 77%
    09:00 +20°C° 0 mm 1 mps 713 mmHg 67%
    10:00 +22°C° 0 mm 1 mps 713 mmHg 57%
    11:00 +23°C° 0 mm 1 mps 713 mmHg 53%
    12:00 +23°C° 0 mm 1 mps 713 mmHg 49%
    13:00 +24°C° 0 mm 2 mps 713 mmHg 45%
    14:00 +24°C° 0 mm 1 mps 713 mmHg 46%
    15:00 +24°C° 0 mm 1 mps 713 mmHg 47%
    16:00 +24°C° 0 mm 1 mps 713 mmHg 47%
    17:00 +22°C° 0 mm 1 mps 713 mmHg 55%
    18:00 +21°C° 0 mm 1 mps 713 mmHg 63%
    19:00 +19°C° 0 mm 1 mps 712 mmHg 71%
    20:00 +18°C° 0 mm 1 mps 713 mmHg 76%
    21:00 +15°C° 0 mm 1 mps 713 mmHg 81%
    22:00 +13°C° 0 mm 0 mps 713 mmHg 86%
    23:00 +13°C° 0 mm 0 mps 713 mmHg 87%

    25 August, Saturday

    Time Temperature Precipitation Wind Pressure Humidity
    00:00 +12°C° 0 mm 0 mps 713 mmHg 89%
    01:00 +12°C° 0 mm 0 mps 713 mmHg 90%
    02:00 +12°C° 0 mm 0 mps 713 mmHg 91%
    03:00 +11°C° 0 mm 0 mps 713 mmHg 91%
    04:00 +11°C° 0 mm 0 mps 713 mmHg 92%
    05:00 +12°C° 0 mm 0 mps 713 mmHg 88%
    06:00 +13°C° 0 mm 0 mps 713 mmHg 84%
    07:00 +15°C° 0 mm 0 mps 714 mmHg 80%
    08:00 +17°C° 0 mm 0 mps 714 mmHg 71%
    09:00 +20°C° 0 mm 0 mps 714 mmHg 61%
    10:00 +22°C° 0 mm 0 mps 714 mmHg 52%
    11:00 +25°C° 0 mm 1 mps 714 mmHg 49%
    12:00 +26°C° 0 mm 1 mps 714 mmHg 45%
    13:00 +27°C° 0 mm 1 mps 714 mmHg 42%
    14:00 +26°C° 0 mm 1 mps 713 mmHg 42%
    15:00 +26°C° 0 mm 1 mps 713 mmHg 42%
    16:00 +26°C° 0 mm 1 mps 713 mmHg 43%
    17:00 +24°C° 0 mm 1 mps 713 mmHg 50%
    18:00 +22°C° 0 mm 1 mps 713 mmHg 57%
    19:00 +20°C° 0 mm 1 mps 713 mmHg 65%
    20:00 +19°C° 0 mm 1 mps 713 mmHg 68%
    21:00 +18°C° 0 mm 1 mps 713 mmHg 71%
    22:00 +15°C° 0 mm 1 mps 713 mmHg 74%
    23:00 +15°C° 0 mm 1 mps 713 mmHg 75%

    26 August, Sunday

    Time Temperature Precipitation Wind Pressure Humidity
    00:00 +14°C° 0 mm 1 mps 713 mmHg 77%
    01:00 +14°C° 0 mm 1 mps 713 mmHg 78%
    02:00 +14°C° 0 mm 1 mps 713 mmHg 80%
    03:00 +13°C° 0 mm 1 mps 713 mmHg 81%
    04:00 +13°C° 0 mm 1 mps 713 mmHg 83%
    05:00 +14°C° 0 mm 1 mps 713 mmHg 80%
    06:00 +15°C° 0 mm 1 mps 713 mmHg 76%
    07:00 +16°C° 0 mm 1 mps 714 mmHg 73%
    08:00 +20°C° 0 mm 1 mps 714 mmHg 65%
    09:00 +22°C° 0 mm 1 mps 714 mmHg 57%
    10:00 +24°C° 0 mm 1 mps 714 mmHg 50%
    11:00 +25°C° 0 mm 1 mps 714 mmHg 46%
    12:00 +26°C° 0 mm 1 mps 714 mmHg 42%
    13:00 +27°C° 0 mm 1 mps 714 mmHg 39%
    14:00 +27°C° 0 mm 1 mps 714 mmHg 39%
    15:00 +27°C° 0 mm 1 mps 714 mmHg 39%
    16:00 +27°C° 0 mm 1 mps 714 mmHg 38%
    17:00 +25°C° 0 mm 1 mps 714 mmHg 46%
    18:00 +23°C° 0 mm 1 mps 714 mmHg 54%
    19:00 +21°C° 0 mm 1 mps 714 mmHg 62%
    20:00 +19°C° 0 mm 1 mps 714 mmHg 65%
    21:00 +18°C° 0 mm 1 mps 714 mmHg 67%
    22:00 +16°C° 0 mm 1 mps 714 mmHg 70%
    23:00 +16°C° 0 mm 1 mps 715 mmHg 71%
    Show more